Theta_e
294 286 286 287 289 290 291 291 290 290 290 290 289 288 287 287 288 291 293 296 295 293 293 292 302 314 315 316 317 318 319 318 318 318 318 319 319 321 322 323 323 324 324 327 329 330 329 329 329 330 331 331 330 329 329 328 328 330 333 334 333 334 333 332 332 331 331 330 330 330 330 332 332 332 332 333 334 334 334 334 335 335 333 332 333 335
293 285 286 290 291 291 291 291 290 289 290 289 288 287 286 288 287 291 292 296 295 294 290 293 309 313 315 316 317 318 318 316 317 317 317 318 320 322 322 322 323 324 326 328 328 329 329 330 331 331 332 332 329 329 328 330 330 331 332 333 333 333 332 331 332 332 331 331 331 329 329 331 331 330 330 329 330 332 333 334 334 331 330 332 333 334
286 285 289 291 293 291 291 290 290 290 289 289 287 286 286 286 290 292 293 295 295 294 289 296 308 311 314 315 317 317 317 317 319 319 319 319 320 321 322 322 323 324 324 326 328 328 328 329 330 331 331 331 330 330 331 332 333 333 333 334 333 332 331 331 332 331 330 329 330 330 329 330 330 332 332 331 332 333 331 332 333 333 332 332 330 330
283 287 290 294 294 291 289 289 290 289 289 287 286 285 284 287 289 285 292 293 294 293 289 295 305 306 311 313 315 317 317 318 320 319 319 321 321 321 322 322 322 323 324 325 327 327 328 328 329 329 329 330 330 331 332 333 333 334 334 334 333 332 330 331 333 332 331 332 332 332 332 331 329 329 333 332 332 331 331 329 328 328 327 326 326 327
285 288 293 294 294 291 288 288 288 288 286 288 288 287 287 287 288 289 288 293 293 294 296 302 303 303 308 309 311 314 318 318 318 319 320 323 324 324 324 324 324 324 325 325 326 326 326 327 327 328 329 330 329 330 331 332 333 333 333 333 332 331 331 331 334 333 333 332 330 330 330 330 330 330 330 329 329 329 329 326 324 324 324 323 323 323
287 291 295 292 292 292 289 287 288 288 285 287 289 289 289 290 289 290 291 290 288 287 299 301 290 296 306 310 310 313 315 315 317 317 320 322 322 323 321 322 324 325 326 326 326 326 326 327 327 328 328 328 329 329 330 331 332 333 332 332 332 331 330 331 332 333 332 330 328 327 326 325 325 325 326 325 325 325 323 322 323 323 323 322 321 320
288 292 292 291 291 291 290 288 289 289 286 284 286 292 292 291 290 290 290 289 282 282 291 300 290 289 301 302 304 312 313 314 317 318 320 320 321 321 321 322 323 323 324 326 327 327 326 326 326 327 327 328 328 329 330 332 332 332 331 332 332 331 330 330 332 332 331 328 327 326 326 326 325 325 325 327 327 324 323 321 319 319 320 319 318 318
291 291 290 291 290 289 288 287 289 290 287 284 291 292 292 291 290 290 291 289 283 290 295 298 295 294 293 299 302 309 312 313 314 317 319 319 320 320 321 322 323 323 324 324 325 326 326 326 326 325 327 328 328 329 331 331 331 330 331 331 331 331 331 331 331 330 330 328 326 326 326 326 325 327 327 328 326 324 321 319 318 317 317 317 317 317
291 289 289 288 289 288 287 290 290 291 288 288 291 292 290 291 291 291 289 286 287 288 283 292 301 293 291 299 305 308 306 309 312 315 316 318 319 319 320 321 322 322 323 324 325 325 325 325 326 327 328 329 330 330 329 329 329 330 330 331 331 331 331 330 330 330 329 329 327 327 327 326 328 330 329 328 326 321 320 317 316 316 315 315 316 316
292 292 291 291 289 287 290 290 291 292 288 291 293 293 292 292 292 290 287 287 286 286 280 287 298 289 288 296 299 304 305 306 311 313 314 317 318 319 320 321 322 322 323 324 325 326 325 325 326 328 330 330 329 329 330 329 330 329 329 329 330 329 329 329 330 330 329 329 328 327 327 327 327 328 326 325 322 319 318 315 314 314 314 314 314 314
292 298 296 292 289 291 291 291 293 291 291 294 293 291 290 290 290 289 287 286 285 279 283 289 296 294 285 295 299 299 303 309 312 313 315 316 316 319 320 321 321 322 323 324 325 326 326 328 328 329 327 328 328 329 329 329 329 329 328 327 327 328 328 329 329 329 329 328 328 327 327 326 325 325 324 322 318 316 314 313 312 312 312 313 313 314
290 292 293 293 296 294 292 291 293 293 292 291 289 288 286 285 287 286 285 286 279 276 284 291 295 297 288 292 301 307 312 313 313 312 313 313 314 318 320 321 322 322 323 324 324 325 326 326 326 327 326 326 327 327 327 327 326 325 324 324 322 322 324 325 327 328 327 327 327 328 327 325 325 324 323 320 316 314 312 312 311 312 312 311 312 312
285 287 292 294 298 294 291 288 290 292 292 290 288 285 282 277 279 276 281 277 277 278 283 289 291 289 290 298 303 307 309 313 315 316 315 314 314 318 320 321 321 322 323 323 324 324 324 324 323 324 325 325 325 325 325 324 323 323 323 321 320 319 320 322 323 323 323 323 323 324 323 321 320 318 317 317 315 314 312 311 311 310 310 310 311 310
282 288 290 292 293 296 293 286 285 286 289 288 286 282 280 276 275 272 276 276 278 283 287 288 290 285 285 295 306 306 309 315 316 316 317 314 315 318 320 321 321 322 323 323 323 324 324 324 324 324 324 324 324 324 323 322 321 321 320 319 318 317 318 319 319 319 318 318 318 318 317 317 317 315 315 315 314 313 312 311 311 310 310 310 309 309
275 278 285 290 286 294 293 291 289 287 288 288 289 286 281 281 279 273 276 276 279 279 285 289 286 280 285 289 307 309 311 314 317 316 316 315 317 319 321 321 321 322 322 323 323 323 323 323 324 323 323 323 323 322 321 320 320 319 318 316 316 316 316 316 316 316 316 316 316 316 316 316 315 314 314 314 314 313 312 311 311 311 311 310 309 308
282 282 285 293 292 294 291 294 294 289 287 289 289 289 283 284 283 280 278 279 281 281 282 284 282 284 287 299 307 311 311 313 315 314 313 313 317 320 320 320 320 321 322 323 323 323 323 323 323 323 323 322 322 320 319 319 318 317 315 315 315 315 315 315 315 314 314 315 316 316 315 315 316 316 314 314 314 313 313 311 311 311 311 311 309 308
283 281 289 292 293 293 293 295 294 293 281 286 289 285 287 290 288 279 280 284 279 280 279 279 288 294 296 303 305 308 310 311 313 312 311 312 316 319 318 319 320 321 321 322 322 322 322 323 323 323 322 321 320 319 318 317 316 315 314 313 313 313 313 313 313 313 313 314 314 314 314 314 313 312 312 312 312 312 313 312 312 312 311 310 308 308
280 279 288 290 289 293 296 295 295 295 290 287 284 287 291 292 291 284 276 279 277 276 277 283 285 288 287 286 301 307 307 309 310 310 310 313 317 318 318 319 320 320 321 322 322 322 322 322 322 322 322 321 319 318 316 315 315 314 314 313 312 312 311 311 312 312 312 313 313 313 313 313 313 313 312 312 312 312 312 312 312 312 309 308 309 307
287 280 285 290 291 292 295 294 292 294 294 290 289 292 289 280 282 282 281 277 275 276 274 280 288 289 289 293 301 303 304 306 308 310 310 312 315 317 318 319 320 321 321 321 321 321 321 321 321 321 320 319 319 317 315 314 314 313 313 312 312 311 311 312 312 312 312 313 313 313 312 312 312 313 313 313 313 312 312 311 311 309 307 306 305 304
290 281 281 289 290 291 291 290 283 288 293 293 292 290 291 286 281 281 282 281 281 274 274 278 286 284 294 298 303 304 306 307 308 308 310 313 316 317 318 318 319 319 320 320 320 320 320 320 320 320 318 318 316 315 314 313 313 312 312 312 311 311 311 311 311 312 311 311 311 312 312 313 313 313 312 312 311 311 310 309 308 305 303 303 303 301
284 286 278 284 290 291 284 288 286 288 286 286 286 285 288 290 289 288 287 284 282 275 273 274 280 280 290 302 305 306 307 308 309 309 310 313 316 318 319 319 319 319 320 320 320 319 320 320 320 319 319 317 316 315 314 313 312 311 311 311 311 310 310 310 310 310 310 310 310 311 310 310 310 310 310 310 310 309 308 308 307 305 304 303 301 300
286 285 282 282 285 284 283 289 291 289 289 284 283 282 283 285 284 281 280 285 285 281 277 279 276 279 290 305 308 308 310 310 311 311 311 313 317 318 319 319 320 319 320 320 320 319 319 319 319 319 318 317 315 314 312 312 311 311 310 310 309 309 309 309 309 309 310 310 309 309 309 309 309 309 309 308 307 306 306 305 304 304 302 301 300 299
291 288 283 280 282 286 288 291 292 292 291 288 288 287 287 285 284 278 277 281 285 283 285 282 280 281 292 304 308 310 310 311 312 312 312 314 317 318 319 320 320 320 320 319 319 319 319 319 319 318 317 315 314 313 312 311 310 310 309 309 309 308 308 309 309 309 309 308 308 308 308 309 308 307 307 306 305 304 304 304 303 303 300 299 299 299
304 286 283 285 287 287 291 291 292 292 292 289 289 288 288 286 286 282 281 281 282 283 283 282 280 281 292 301 307 309 311 312 313 313 313 315 317 319 319 319 319 319 319 319 319 319 319 318 318 317 315 314 313 312 311 311 310 309 309 308 308 307 308 308 308 309 308 307 307 306 307 307 306 306 305 304 304 303 303 303 302 302 299 299 298 297
287 286 282 279 278 282 284 286 287 289 290 285 284 287 288 287 289 288 287 286 284 283 284 281 277 284 295 305 308 310 311 311 311 312 314 315 317 318 318 318 319 319 318 318 318 317 317 317 316 315 315 313 312 311 311 310 309 308 308 308 307 307 308 308 308 308 307 306 305 305 306 305 305 304 304 303 303 303 303 302 302 301 299 298 297 296
288 285 283 277 275 273 274 275 278 281 284 285 287 288 288 288 288 288 284 282 281 284 286 281 278 283 295 305 308 310 310 310 312 313 315 317 317 317 318 318 318 318 317 317 317 316 316 316 316 315 314 313 312 311 310 309 309 308 307 307 307 307 307 308 307 307 306 305 305 305 304 304 303 303 302 302 302 302 302 302 301 299 299 298 296 296
290 290 285 280 279 279 280 281 285 286 286 282 287 288 288 289 288 289 284 281 281 281 283 284 293 292 300 302 306 308 310 311 312 314 314 315 317 318 318 317 317 317 317 316 316 316 316 315 314 313 313 313 312 311 310 309 308 307 307 306 307 307 307 307 307 306 306 305 304 304 303 303 303 303 302 302 301 302 301 300 300 299 298 298 297 296
289 283 287 286 285 285 285 288 289 288 285 285 286 288 287 288 289 287 285 282 285 284 281 289 296 297 299 304 307 308 310 312 313 314 315 316 317 317 317 316 314 316 316 316 315 315 314 314 313 312 312 312 311 311 310 309 307 307 306 306 306 306 307 308 307 306 305 305 304 303 303 302 302 302 302 302 302 301 301 301 300 299 299 298 297 296
290 284 287 289 288 292 291 291 291 289 287 287 287 287 288 288 288 286 285 287 288 285 282 290 296 298 301 306 308 310 311 312 313 315 316 317 318 317 316 315 314 314 314 314 314 314 314 313 312 311 311 311 311 310 309 307 306 306 306 306 306 306 306 307 307 305 305 304 303 302 302 302 302 302 303 302 301 301 301 301 300 299 298 298 297 297
292 285 288 290 289 291 293 292 293 288 288 288 289 288 287 287 287 287 288 289 289 287 288 295 293 298 304 307 310 311 313 314 314 316 317 316 316 315 315 314 314 314 313 313 313 314 314 313 312 311 311 310 310 309 307 306 306 305 305 305 306 306 306 306 305 305 304 303 302 302 302 302 302 301 301 301 300 300 300 300 299 298 296 295 295 294
292 285 292 289 283 288 291 294 293 292 287 286 287 288 289 289 288 288 289 291 291 291 294 295 296 296 300 305 307 310 312 314 314 314 315 316 316 315 314 313 313 313 313 313 313 313 313 313 312 312 311 310 308 308 307 306 305 305 305 305 305 305 306 306 305 305 304 302 302 301 301 301 301 301 300 300 300 299 300 299 298 296 295 294 294 293
294 286 290 286 281 283 289 291 291 290 289 286 285 287 287 288 288 288 287 289 290 289 291 293 294 292 300 308 309 311 311 312 312 313 314 315 315 315 313 313 313 313 313 313 313 313 313 312 312 311 311 309 308 307 306 306 305 305 304 305 305 305 305 305 305 304 303 302 301 301 301 300 300 300 299 299 299 299 299 298 297 296 295 294 293 293
291 287 285 280 280 280 287 290 290 287 286 284 281 285 289 288 289 291 290 292 290 293 291 287 293 302 306 309 309 309 311 312 313 314 314 315 315 315 314 313 313 313 313 313 312 312 312 312 312 312 311 309 308 307 307 306 305 304 305 305 305 306 305 305 304 302 302 301 301 300 300 300 299 299 299 299 299 299 299 298 297 296 295 294 294 292
293 290 285 285 281 281 287 288 285 280 276 277 285 293 295 293 290 289 289 290 292 298 294 295 296 302 307 309 309 308 310 311 313 315 317 316 314 314 314 314 314 314 314 313 313 313 312 312 312 312 310 309 308 308 307 307 306 306 306 306 306 305 304 304 303 302 301 301 300 299 299 299 299 298 298 298 298 298 298 298 297 297 296 296 294 292
290 287 285 285 282 284 284 286 281 276 274 285 291 297 299 298 293 291 294 293 295 294 296 296 301 305 308 310 310 311 313 315 316 315 316 317 316 315 314 314 314 314 313 313 313 312 312 312 311 311 309 308 308 308 307 307 306 306 306 306 305 304 303 303 302 301 300 299 299 299 299 299 298 298 298 298 298 297 297 297 296 297 296 295 294 292
284 285 285 283 281 281 280 278 276 274 283 290 294 296 298 296 292 292 291 294 294 296 299 300 305 307 308 309 311 313 313 313 314 315 316 317 317 316 314 314 314 314 313 314 313 312 312 312 311 310 308 309 308 307 307 306 307 306 305 306 304 303 302 302 301 300 299 298 298 298 298 298 298 298 297 297 297 297 296 296 296 296 296 295 294 293
291 287 285 284 282 280 278 275 277 284 287 289 291 295 294 291 293 288 283 288 294 293 298 303 305 307 307 305 307 308 310 312 310 310 315 316 316 316 316 315 315 314 315 314 314 313 313 313 312 310 309 308 307 306 306 307 307 306 305 304 303 302 302 301 300 297 298 297 297 298 298 298 298 297 297 297 296 296 296 295 295 295 295 294 294 293
292 287 286 285 282 281 279 279 279 278 276 281 287 294 298 297 297 292 288 288 292 295 296 305 305 305 304 305 306 308 310 307 304 307 313 315 315 314 314 315 315 315 314 314 314 313 312 313 312 310 309 307 307 307 307 307 307 306 305 303 302 302 301 300 298 297 298 297 297 297 297 298 298 297 297 296 296 296 295 295 295 294 295 293 293 292
292 291 287 284 283 282 280 278 278 276 277 284 289 294 296 298 297 292 286 282 288 292 299 300 305 305 306 306 306 309 307 302 303 308 312 313 313 314 313 313 314 314 313 313 313 312 312 312 311 308 308 307 306 307 307 307 306 305 304 303 302 301 300 298 297 298 297 297 297 297 297 298 297 297 297 296 296 296 295 295 295 295 294 293 292 292
288 283 284 282 279 279 278 278 280 278 283 292 293 295 297 298 295 290 281 278 288 295 300 297 304 305 307 308 309 308 305 299 302 308 312 313 314 314 313 312 312 311 311 312 312 313 312 311 309 307 307 306 306 307 307 307 306 304 303 301 301 300 299 297 298 298 297 296 296 297 297 297 298 297 297 296 295 296 296 296 295 293 293 292 292 291
284 283 283 281 279 279 281 278 280 282 288 292 295 297 298 297 292 283 279 283 291 297 300 298 299 307 308 308 309 305 308 306 309 310 313 313 312 312 313 313 312 312 311 311 311 308 312 310 308 307 307 307 307 307 307 307 305 303 302 300 300 299 298 298 298 297 297 297 296 297 297 297 297 296 296 296 296 296 296 295 294 293 293 292 291 291
283 281 282 280 282 281 277 279 279 281 288 296 298 300 298 295 284 280 286 292 298 301 304 298 301 309 309 309 309 310 309 304 309 312 312 312 312 312 312 311 311 311 311 310 309 310 311 309 308 307 307 307 307 307 307 306 304 302 300 299 299 298 298 298 297 298 297 296 296 297 297 296 296 296 296 296 296 295 294 294 295 294 293 292 292 291
284 284 280 280 279 280 276 276 281 280 290 300 299 296 294 287 284 288 294 301 302 302 303 299 306 309 311 308 306 303 305 306 310 311 312 312 311 310 310 310 309 309 309 308 308 310 310 308 306 306 306 307 307 307 306 305 303 300 299 299 298 298 298 298 298 298 298 297 296 297 296 296 296 296 297 296 295 294 294 294 295 294 294 293 292 292
289 283 282 281 281 279 278 277 280 284 289 297 296 288 294 295 294 296 300 299 302 302 301 303 305 309 310 309 305 304 306 307 308 310 310 310 310 310 310 310 310 309 309 309 309 309 309 308 307 306 306 307 307 307 306 304 301 299 299 298 299 298 298 298 298 298 297 297 296 296 296 296 296 296 296 295 295 294 294 294 295 294 294 293 293 292
291 286 283 284 289 283 282 282 289 291 295 301 301 298 298 304 304 303 301 302 302 303 303 305 305 307 309 308 307 308 307 309 309 310 310 309 309 308 309 309 309 309 308 308 308 308 308 308 306 306 306 306 306 306 305 304 301 298 298 298 299 297 297 298 298 297 297 296 296 296 296 296 296 296 295 295 295 294 294 294 294 294 293 293 293 292
295 295 292 291 292 295 295 296 299 298 299 301 302 302 303 304 304 302 302 303 304 304 304 305 304 306 306 308 308 305 308 308 308 308 309 309 308 308 308 308 308 308 308 308 308 307 308 307 306 305 305 305 305 305 304 303 301 298 298 299 299 298 298 298 297 297 297 296 296 296 297 296 295 295 295 295 295 295 294 294 294 294 292 293 292 292
294 297 291 289 294 288 287 290 297 299 301 301 301 302 303 303 304 303 303 303 305 306 307 307 307 306 307 308 309 307 306 307 307 307 307 307 307 307 307 307 307 307 307 307 307 306 307 307 305 305 304 304 304 304 303 302 301 300 300 299 299 299 298 298 297 297 297 296 296 296 297 295 295 294 295 295 294 295 295 294 293 294 293 292 292 291
289 297 291 292 287 285 287 294 297 298 300 303 302 301 302 303 304 303 304 305 305 306 306 307 307 307 306 307 308 308 307 307 307 306 306 307 306 306 307 306 306 306 307 307 306 307 307 307 305 304 304 303 304 303 302 301 301 301 300 300 299 299 298 297 297 296 296 296 296 296 296 295 293 294 294 294 294 293 292 291 293 293 292 292 290 289
295 297 288 292 290 292 293 295 296 298 299 300 302 302 302 303 303 304 304 305 306 307 305 306 305 308 306 307 307 308 307 306 307 307 306 306 305 306 306 306 306 306 306 306 306 306 307 306 305 304 303 303 303 302 301 301 301 300 299 299 299 298 298 297 296 296 296 296 296 295 295 295 295 295 294 292 291 290 290 292 292 291 289 288 288 292
293 289 294 290 288 287 288 293 295 290 290 298 301 302 302 303 303 302 302 304 305 305 304 305 303 304 308 308 308 308 306 305 306 306 306 306 306 305 305 305 306 306 305 306 307 307 307 306 305 304 303 303 302 302 301 301 300 300 299 299 299 299 298 297 296 296 296 296 296 295 295 295 294 294 293 291 290 289 288 287 289 289 292 290 292 292
294 296 289 283 284 285 291 296 297 294 295 297 301 303 303 303 303 303 303 304 304 304 304 304 303 304 306 305 307 307 306 306 306 306 306 305 305 306 306 306 305 305 305 305 305 305 306 305 304 304 303 302 302 301 301 300 300 299 299 300 300 299 298 297 296 296 296 295 295 295 295 295 293 292 292 291 289 289 288 288 288 287 288 289 290 291
Wind_Speed
4 8 11 16 17 15 9 7 5 6 5 3 4 5 7 6 2 4 6 6 6 4 8 7 7 13 13 13 12 10 8 9 12 12 11 10 11 11 11 10 9 9 9 9 10 9 8 8 6 7 6 5 5 3 3 4 3 3 5 7 8 6 6 6 7 6 7 8 7 5 5 6 4 4 3 4 3 4 3 3 4 4 4 4 4 3
6 8 14 12 5 6 8 6 5 4 7 7 4 3 7 7 7 3 5 7 5 6 5 5 11 11 14 12 12 10 12 13 14 13 13 14 13 11 13 13 11 10 8 10 9 11 9 8 8 7 6 7 8 5 4 5 4 3 5 7 8 5 5 5 6 6 5 4 6 7 6 5 4 4 4 4 4 4 3 3 3 2 2 4 5 5
11 17 11 4 3 3 5 7 8 9 9 8 5 5 3 6 4 4 4 5 5 5 6 8 11 10 11 11 9 12 12 10 12 16 17 19 16 13 13 12 13 12 13 12 11 11 10 10 8 6 6 6 5 5 6 6 6 6 6 6 7 5 5 4 4 4 5 3 4 5 5 6 4 3 3 4 3 3 4 4 4 5 5 5 6 7
12 11 4 8 5 5 4 7 8 8 8 8 6 4 7 3 7 7 7 4 2 6 4 8 9 5 5 5 6 4 5 7 6 7 10 10 16 17 16 15 15 14 14 14 12 11 10 11 8 6 7 6 6 6 6 7 7 6 6 6 7 6 4 5 4 3 3 4 6 6 7 5 4 5 4 5 4 4 7 9 7 7 6 7 8 7
6 4 7 7 8 6 6 7 10 9 10 10 7 4 4 4 4 5 4 6 3 4 5 11 7 3 5 9 5 4 6 10 8 10 9 9 10 11 11 11 15 16 15 13 14 12 10 10 9 9 7 7 7 6 6 5 5 4 5 6 7 5 4 4 4 5 5 7 7 7 7 6 8 6 6 5 6 6 7 7 7 7 7 8 8 8
8 5 13 9 9 10 8 8 13 11 8 9 8 8 6 4 4 5 4 6 3 4 2 14 4 4 4 4 7 7 8 9 10 12 13 13 11 14 13 13 11 11 12 15 15 14 13 10 10 8 9 9 7 6 4 3 4 5 5 6 6 5 3 4 5 5 6 6 8 8 8 7 6 7 6 7 7 6 6 7 5 8 8 7 8 8
5 5 12 12 10 11 11 9 9 10 10 7 6 10 7 5 5 6 1 2 4 6 7 8 12 2 4 6 7 6 11 12 10 12 15 13 12 12 12 12 11 12 11 9 11 12 12 11 10 9 9 8 8 6 4 4 5 5 5 5 6 5 4 3 4 4 5 6 4 6 7 7 8 8 4 4 6 7 6 6 8 7 7 8 9 8
7 10 11 13 11 11 11 12 10 13 10 10 4 9 8 8 9 9 1 1 4 3 4 12 7 9 6 9 11 11 10 14 14 14 13 10 13 12 10 11 12 12 13 11 10 11 11 12 12 11 9 8 8 7 5 5 5 6 6 5 6 5 5 3 4 5 5 7 6 6 6 6 7 7 8 7 7 7 6 8 7 7 7 7 7 7
11 10 12 13 13 11 13 10 5 9 10 4 4 6 5 7 8 6 2 4 5 4 4 9 4 5 4 8 9 5 9 9 17 19 15 13 13 11 10 11 12 11 12 12 11 12 11 11 11 10 9 8 8 7 6 6 5 5 5 5 6 6 6 5 4 5 5 5 6 7 7 7 5 8 8 7 7 7 7 9 7 8 7 7 7 7
6 8 11 12 12 13 8 5 7 11 11 6 6 3 3 2 3 3 6 6 6 1 6 10 10 6 2 5 9 5 4 8 12 13 13 14 14 11 12 12 13 11 10 10 11 11 10 9 9 9 8 9 7 7 7 6 6 5 5 6 7 7 5 5 6 5 5 5 6 7 7 9 8 7 7 7 8 7 7 9 8 6 6 6 6 7
3 10 8 10 12 9 6 6 8 6 4 1 6 4 4 2 1 1 4 4 1 5 10 12 11 7 4 8 14 13 16 19 13 10 10 11 11 11 13 14 13 12 11 11 10 9 9 8 9 9 9 9 9 8 8 7 7 6 6 6 7 5 5 5 6 6 5 4 4 6 7 9 10 9 9 9 8 7 7 8 7 6 6 5 6 7
11 5 8 6 10 7 6 6 6 5 5 5 6 5 2 6 1 1 3 2 5 8 8 12 15 9 8 6 9 13 15 19 21 21 18 15 15 13 14 13 13 12 11 11 11 10 10 10 10 10 10 10 10 9 8 7 6 7 6 7 8 5 5 5 5 6 5 5 5 5 7 8 8 8 7 9 9 8 9 8 7 5 6 6 6 6
6 10 7 7 9 14 10 5 7 8 7 9 7 3 8 2 3 4 2 5 9 8 5 9 10 4 10 12 20 21 11 17 20 20 23 21 16 14 14 14 12 11 12 12 10 10 11 11 11 11 11 11 10 9 9 8 8 8 8 8 9 7 6 6 6 6 6 6 6 6 6 6 6 7 8 9 10 8 8 7 7 6 6 6 7 6
5 4 7 8 7 10 10 10 7 9 12 11 11 6 8 6 4 5 6 1 2 6 5 7 9 5 2 2 18 21 16 22 21 17 19 19 19 17 15 14 12 12 13 12 10 11 11 11 10 11 11 10 10 9 9 9 9 7 7 7 9 8 6 6 7 7 8 7 7 6 7 7 8 8 9 8 9 8 7 6 7 7 6 7 6 6
6 6 8 9 7 11 13 13 11 6 11 12 4 7 6 4 4 5 3 7 8 7 5 3 9 5 5 5 15 20 22 21 18 12 10 11 14 15 14 13 13 13 12 11 10 12 11 11 12 11 11 11 10 10 9 8 8 8 8 8 9 9 7 7 7 7 9 8 8 8 7 7 7 8 9 8 8 8 8 7 8 7 6 7 6 6
6 4 6 10 4 13 14 11 8 5 4 6 4 6 5 10 6 4 6 6 4 2 0 2 3 3 5 5 12 15 10 10 12 11 11 11 13 13 13 14 14 12 12 11 11 11 11 12 12 12 11 10 10 10 9 9 8 8 8 7 8 8 7 8 8 7 7 7 7 8 9 8 8 8 8 8 7 7 7 7 8 7 6 6 6 4
4 4 4 9 8 14 14 10 9 8 8 5 8 11 10 5 7 2 1 0 2 4 5 1 1 1 1 11 8 12 13 11 13 12 12 14 14 14 13 14 14 13 12 13 12 10 12 12 11 12 12 10 10 10 10 9 8 9 9 9 9 7 7 8 7 7 7 7 8 8 8 8 8 9 9 9 9 9 7 7 7 7 7 6 6 6
7 6 7 8 14 10 15 12 8 9 6 6 9 10 2 3 3 3 4 1 2 4 4 1 4 2 3 1 2 12 13 12 14 15 13 15 14 15 13 14 15 14 13 13 14 12 13 13 13 11 10 10 11 11 10 10 8 8 8 8 9 8 8 6 7 7 7 8 8 8 8 8 8 9 9 9 9 7 8 7 7 7 7 6 6 7
1 3 4 7 12 8 9 11 8 6 5 7 9 7 8 6 10 3 3 2 4 5 2 1 4 3 5 7 8 11 15 13 14 13 13 16 15 15 14 14 14 14 12 13 14 13 13 13 13 12 11 11 12 11 11 10 9 9 7 7 8 8 7 6 5 6 5 6 6 6 8 9 8 7 8 7 7 7 9 8 8 7 7 7 8 8
3 1 3 3 11 5 3 7 9 11 6 1 3 8 8 5 4 3 6 3 7 3 2 1 0 4 3 12 18 18 19 19 17 15 16 18 19 15 14 15 15 15 13 14 13 13 13 13 14 14 13 13 13 12 11 10 9 10 8 9 8 7 6 5 6 5 7 6 7 8 8 8 8 8 8 7 7 7 8 8 8 8 9 8 8 8
5 2 3 2 4 6 6 6 11 12 11 4 3 2 3 4 2 5 1 4 5 4 3 4 1 5 4 10 20 22 22 21 21 20 16 17 18 17 17 17 16 17 15 14 14 14 14 14 13 13 12 12 11 11 10 10 10 9 8 8 8 9 6 6 5 5 6 6 7 8 8 7 7 7 6 7 7 9 8 8 8 8 8 8 8 8
3 1 4 0 5 7 6 7 8 7 7 6 6 5 6 8 4 3 5 1 2 5 3 6 4 6 6 7 15 18 19 20 22 22 19 19 18 18 16 17 17 16 16 15 15 14 14 14 13 13 12 12 12 11 11 10 10 10 8 8 7 7 6 6 5 5 6 5 6 7 7 6 6 6 6 7 8 8 8 8 8 8 9 10 7 8
6 1 2 3 6 11 5 2 6 8 6 7 7 3 5 4 6 4 3 4 2 1 6 5 6 3 3 8 15 21 18 20 20 19 19 18 19 17 16 16 16 16 18 16 15 15 14 14 14 14 15 14 14 12 12 10 10 10 9 8 7 8 7 6 5 4 4 5 5 6 6 7 6 7 7 8 7 9 9 8 9 10 11 9 8 8
6 2 3 1 0 1 0 3 2 4 4 3 1 2 4 2 5 5 3 5 6 2 2 0 3 2 2 3 8 8 15 15 15 19 19 15 14 14 15 15 15 14 13 13 12 12 13 13 13 13 14 14 12 13 12 10 9 9 8 8 8 9 7 6 4 4 4 5 6 6 7 7 7 8 8 8 7 9 8 9 9 10 10 9 8 9
4 3 4 2 3 2 1 2 2 2 2 2 2 2 3 2 1 3 5 1 2 4 9 8 5 2 1 2 7 7 8 12 13 9 14 17 13 14 15 13 13 13 14 15 14 14 14 13 14 14 13 13 12 11 11 11 10 9 8 8 8 7 6 5 5 5 5 5 6 7 8 7 7 8 8 8 7 8 8 9 9 9 10 9 9 7
2 2 3 3 7 9 9 8 7 3 7 2 2 2 3 6 5 2 3 0 2 2 5 4 3 4 2 3 11 8 8 7 6 10 8 12 18 16 14 13 15 14 15 16 14 14 16 14 12 12 13 12 12 11 11 11 10 9 8 7 7 7 6 5 5 5 5 6 7 7 8 7 8 8 8 8 7 8 8 9 9 9 8 10 9 8
1 1 2 4 7 8 8 7 5 5 1 4 1 2 3 2 4 4 5 3 4 3 3 4 8 5 5 4 10 11 12 15 14 11 14 12 10 13 14 15 16 15 17 18 16 15 14 13 14 13 13 12 12 12 11 11 11 10 9 8 7 6 6 6 6 5 6 6 7 7 7 7 7 8 7 7 8 8 9 10 9 9 9 8 9 8
2 3 1 5 3 7 7 3 5 5 4 2 3 1 2 3 7 6 5 6 4 6 5 0 6 11 8 10 14 15 15 15 15 16 14 13 14 14 13 13 14 14 14 14 14 16 16 15 14 14 14 13 12 12 11 10 11 11 10 10 8 7 7 6 6 6 6 7 7 6 7 6 6 7 7 7 7 8 9 9 9 9 8 8 8 8
2 1 3 2 3 1 4 0 1 5 4 5 5 2 1 1 5 5 4 3 6 6 8 6 6 12 11 13 16 18 19 19 19 20 19 18 16 14 14 16 16 16 16 17 17 18 17 16 14 15 15 14 14 14 12 11 10 9 9 9 9 8 8 7 7 6 6 6 7 6 6 6 5 6 6 7 8 8 8 9 9 9 8 8 8 7
1 2 2 1 0 2 3 5 5 3 2 4 2 4 4 4 4 5 2 4 6 5 7 10 3 6 14 15 15 15 11 13 11 10 11 14 17 16 17 18 18 18 18 18 18 18 18 19 18 16 16 15 15 14 13 12 12 11 11 10 9 9 7 7 6 7 7 7 6 6 6 6 6 6 7 7 8 8 9 9 9 9 9 8 8 7
1 4 3 2 2 3 1 2 9 8 5 4 5 4 3 3 3 1 2 2 4 2 3 9 9 5 3 3 4 4 8 8 11 15 17 17 16 17 17 17 17 17 17 17 16 16 16 16 17 18 17 16 15 15 14 13 12 11 11 10 10 9 7 6 7 7 7 7 6 6 6 7 6 6 7 7 7 8 10 10 9 9 9 8 8 8
1 3 3 2 2 2 2 4 4 7 3 4 5 6 4 1 0 1 2 5 3 3 5 2 9 3 0 7 7 9 10 14 17 15 15 14 16 17 17 16 17 17 17 17 17 17 17 17 18 19 18 17 18 17 15 13 12 12 11 10 10 9 7 7 8 8 7 7 6 7 7 6 6 7 7 7 8 9 9 9 10 9 8 8 8 7
1 1 1 1 3 1 6 3 7 5 4 1 5 3 1 1 1 0 1 1 5 10 8 6 9 9 14 13 14 11 12 10 12 15 15 14 16 17 18 18 18 18 18 18 18 19 18 18 17 16 16 16 15 15 17 17 15 13 12 12 10 8 7 8 8 8 8 7 7 7 7 7 8 7 7 7 8 8 9 9 9 9 9 9 7 7
0 1 1 0 1 1 4 3 4 5 3 3 2 4 2 1 4 4 2 4 4 8 9 8 6 4 12 15 18 16 16 16 18 17 18 19 16 15 15 16 18 18 17 17 18 18 17 15 14 14 15 16 16 16 15 15 16 14 12 11 10 9 9 10 9 9 9 8 7 7 7 8 8 8 7 7 7 8 9 9 8 7 7 8 7 8
5 2 0 1 1 1 2 4 4 0 5 4 5 4 3 2 3 7 2 0 1 2 9 9 8 11 14 17 18 20 23 22 18 17 13 13 18 18 19 18 16 16 17 16 16 15 15 15 14 14 15 16 16 14 12 10 11 12 12 12 11 10 11 10 10 9 9 8 7 8 8 8 8 8 7 7 7 7 8 8 8 8 8 8 8 8
4 3 0 2 2 2 3 3 3 4 4 4 8 8 4 2 1 4 3 1 2 6 13 14 17 16 13 13 14 14 13 12 10 10 15 16 18 18 17 17 18 17 17 16 17 15 15 14 14 14 14 12 13 12 12 13 13 13 12 11 11 10 11 11 10 8 7 9 8 9 9 9 9 8 8 8 7 7 7 7 8 8 7 7 6 5
9 5 2 1 1 2 2 2 3 4 4 2 2 1 0 1 0 4 4 1 1 1 4 15 15 15 10 4 7 8 9 10 9 5 5 12 13 13 19 19 17 18 16 14 15 15 13 13 14 13 12 13 13 14 13 13 13 13 12 11 10 11 12 11 10 8 8 9 9 10 9 10 10 9 8 8 8 7 7 7 7 7 7 8 7 7
4 5 2 5 2 4 4 2 2 1 2 4 5 4 4 3 2 4 5 0 2 3 2 11 13 11 8 9 8 11 13 12 6 7 10 9 9 8 5 7 11 12 13 13 13 13 13 13 13 14 15 16 15 15 14 15 15 14 13 12 11 13 11 11 10 9 10 10 10 10 9 9 10 10 9 8 8 8 6 6 5 6 6 9 8 7
8 9 7 5 0 3 3 3 2 3 3 4 4 3 5 2 6 3 4 2 3 1 3 4 13 11 13 14 12 13 12 10 11 12 12 11 11 10 12 10 11 12 13 15 17 16 14 14 14 14 15 16 17 14 14 15 15 14 13 12 12 13 13 11 10 10 11 11 10 9 9 9 9 9 9 9 8 8 8 8 7 6 6 7 7 7
7 4 3 3 2 0 1 2 1 2 1 1 4 5 4 3 2 5 3 4 3 6 1 4 9 12 13 15 15 14 14 10 10 12 13 17 15 14 15 14 13 12 12 12 14 16 15 13 14 14 16 17 16 15 16 16 14 14 13 13 12 12 13 11 11 10 10 10 9 9 9 8 9 8 9 9 8 8 9 7 7 7 7 6 7 7
1 1 2 4 1 1 3 1 1 3 4 4 3 4 3 1 6 5 6 4 3 5 3 5 9 9 12 16 15 12 12 11 12 10 15 13 12 12 11 13 16 16 15 15 14 14 14 14 16 17 17 15 15 15 15 14 14 14 13 13 13 14 12 11 10 9 10 9 9 8 8 8 8 9 8 8 9 9 7 7 7 7 7 7 6 6
2 2 1 3 1 2 1 2 3 3 4 2 3 2 2 3 1 3 4 3 2 5 7 6 13 13 13 16 14 15 13 3 10 14 17 18 18 15 13 12 11 10 11 13 15 15 13 13 14 16 16 15 16 16 15 15 14 13 13 13 14 12 10 11 10 9 9 10 10 9 9 9 8 8 8 7 8 8 8 7 7 7 8 7 7 7
4 3 2 3 2 1 2 2 1 2 1 0 5 3 4 3 4 4 1 2 2 5 6 3 12 13 15 12 6 2 6 5 11 16 18 16 15 16 16 15 16 16 15 13 13 13 15 13 14 16 16 15 16 15 14 15 15 13 14 14 13 11 11 11 12 12 10 9 10 9 9 9 9 8 7 7 8 8 8 7 8 7 7 7 6 7
1 2 1 2 3 3 2 1 1 2 4 4 1 2 2 2 3 4 3 1 3 3 1 4 6 13 12 13 8 5 6 9 7 11 13 13 13 14 15 16 15 15 14 14 16 15 15 14 13 13 13 14 14 14 14 16 15 14 15 16 13 11 12 13 12 12 11 10 10 10 9 9 9 8 7 8 8 8 8 8 8 7 7 7 7 7
2 1 4 3 1 1 2 3 1 3 3 4 1 1 1 2 0 3 4 2 0 1 0 5 7 7 12 11 10 12 9 12 16 17 18 16 15 15 15 16 17 17 16 16 15 13 14 15 15 14 13 13 14 13 14 14 16 16 16 14 12 12 13 13 12 12 11 11 10 10 9 8 8 7 7 7 8 8 8 8 8 8 7 7 7 7
1 2 1 4 1 0 2 2 1 2 2 6 5 3 2 4 3 2 4 4 2 1 1 6 4 6 5 8 12 4 9 9 12 9 9 12 13 11 10 11 10 11 12 12 12 13 12 12 14 16 15 13 14 13 13 14 15 17 15 13 13 13 14 13 13 13 12 11 10 11 10 9 8 7 7 7 7 8 7 9 9 9 8 8 7 7
3 2 1 2 1 5 1 5 4 1 1 5 4 4 3 4 4 3 4 3 1 3 6 4 6 5 5 5 10 10 8 8 10 8 8 9 11 13 14 14 13 14 16 16 14 14 13 14 14 16 17 16 14 13 13 14 13 13 13 13 13 13 13 14 14 13 12 12 11 10 10 10 8 7 7 7 6 7 7 7 7 8 7 7 8 7
2 2 3 1 3 2 1 1 3 3 3 4 5 5 3 4 5 5 2 1 1 3 4 5 6 6 4 6 9 12 10 10 13 11 11 11 12 12 12 13 13 11 11 13 13 14 14 15 15 16 16 16 14 13 13 13 13 14 15 13 13 13 13 13 13 13 12 13 11 10 10 9 11 10 7 7 7 7 5 4 6 7 7 7 7 7
2 3 1 0 1 1 2 1 1 1 4 3 2 2 3 1 4 5 5 4 4 5 5 4 4 8 4 7 6 11 11 8 10 13 12 9 9 9 10 11 12 13 12 12 12 13 14 14 15 15 15 14 12 13 13 14 13 14 15 14 14 14 14 13 13 13 12 11 10 10 9 8 8 7 8 6 4 3 3 6 7 6 4 3 6 8
2 2 0 3 3 1 4 4 3 6 1 1 0 1 4 2 4 4 4 5 3 4 4 6 4 2 7 9 10 11 12 9 7 10 12 11 11 10 9 10 10 11 10 11 12 12 12 13 14 15 14 12 12 12 12 13 12 13 14 14 13 13 14 13 12 12 12 11 10 9 9 8 7 7 7 7 7 6 4 7 7 1 7 5 3 7
2 2 2 3 5 2 5 4 2 2 4 3 1 2 1 3 4 4 3 2 1 2 4 7 5 5 5 4 5 11 11 12 10 9 10 9 10 11 13 14 12 10 11 11 11 11 13 12 13 14 14 13 12 12 13 12 13 13 12 13 13 14 14 14 12 11 11 11 10 11 10 8 8 7 7 7 7 7 7 4 5 9 10 6 6 8
Wind_Direction
134 193 201 205 207 206 201 191 186 239 289 224 183 187 207 195 227 214 206 202 167 150 201 187 151 152 161 168 167 159 138 126 135 137 138 143 144 147 146 139 131 127 129 134 134 132 126 121 121 130 130 117 103 102 108 102 102 103 110 112 107 120 126 128 132 133 135 128 118 105 116 125 136 132 112 88 69 68 55 62 65 67 69 62 50 44
168 213 228 217 202 200 194 173 175 238 260 257 244 217 223 191 208 222 202 208 180 148 229 149 146 163 167 169 164 151 147 153 150 145 147 147 149 150 147 142 138 130 128 137 140 139 131 131 127 126 131 138 138 127 116 122 128 119 118 114 119 125 135 144 145 138 134 140 145 140 144 135 132 127 112 94 72 66 54 50 67 66 59 58 62 67
204 218 214 178 197 168 180 163 178 206 235 254 231 227 250 236 185 256 236 221 205 153 213 142 149 172 172 165 159 161 163 163 165 161 157 152 153 151 149 146 143 142 145 148 147 145 142 135 125 128 137 141 126 127 136 139 139 140 133 128 131 143 149 141 127 125 135 121 117 123 135 136 113 62 79 94 90 90 74 55 63 71 67 70 62 61
212 232 152 167 194 196 191 177 179 210 230 235 233 199 218 237 171 221 243 232 183 168 184 157 144 145 82 86 128 144 135 140 124 123 138 151 154 156 159 156 150 149 149 150 151 144 139 141 137 136 143 141 137 139 142 152 153 148 141 133 132 144 143 134 133 115 102 105 98 94 105 88 80 116 93 75 64 60 70 66 64 59 58 58 60 57
207 124 167 168 191 200 195 188 186 198 225 234 215 192 204 230 248 169 222 238 163 214 102 100 73 52 140 135 141 122 119 125 128 128 137 148 147 147 147 153 153 150 149 143 144 144 146 148 149 152 147 142 151 154 154 151 150 143 129 115 130 143 146 134 127 128 125 111 97 96 85 87 90 75 81 88 72 74 82 80 64 63 59 57 59 56
231 241 165 195 187 203 206 198 200 191 220 243 233 197 207 214 245 263 235 205 126 201 210 138 41 207 197 175 143 137 123 133 149 146 156 155 149 152 162 159 153 147 149 146 147 156 160 152 147 148 144 152 154 148 136 115 112 121 112 113 125 133 132 131 130 138 132 132 132 129 126 124 115 118 116 112 115 101 85 82 78 62 58 63 63 57
200 216 178 192 195 203 210 215 204 183 212 213 240 173 207 216 218 244 302 108 173 180 243 181 160 214 124 217 265 156 147 147 155 158 162 157 156 161 164 163 159 153 149 149 148 153 152 151 152 150 152 154 148 141 128 113 116 115 112 119 131 136 135 133 132 130 126 120 126 126 126 126 131 128 114 104 99 101 96 87 75 70 60 56 62 57
186 199 191 187 202 205 209 213 209 194 194 229 128 153 189 208 229 239 183 246 236 258 216 201 187 150 169 228 217 220 152 156 157 163 163 162 164 167 165 168 164 161 158 155 151 154 154 155 160 155 154 153 151 141 131 125 125 124 125 125 126 131 132 132 128 119 128 131 131 119 116 125 130 129 128 121 109 99 95 82 75 72 61 55 57 60
190 198 192 189 197 208 216 209 197 195 208 215 165 166 186 190 219 227 180 227 244 217 258 220 111 90 205 179 175 204 144 177 162 164 169 168 171 166 163 171 168 163 163 159 156 160 156 156 157 156 153 146 136 137 131 127 121 119 122 123 123 127 129 133 124 117 121 131 135 130 131 124 124 123 122 115 107 102 97 88 75 70 64 58 54 53
194 212 189 192 190 211 208 202 205 193 214 237 224 158 182 196 212 155 200 217 252 218 229 220 186 137 168 135 148 222 211 204 175 178 174 173 175 166 168 172 168 163 165 165 162 160 152 146 148 150 136 131 130 121 122 121 122 124 126 130 126 124 129 139 124 122 127 132 130 130 137 127 125 123 117 113 112 105 95 87 77 73 67 61 56 47
200 202 194 194 201 202 182 215 203 188 203 325 243 215 238 283 277 219 200 184 101 228 232 202 205 135 162 189 177 168 191 186 171 175 182 178 173 170 173 172 169 166 164 163 159 151 145 139 139 137 133 125 125 127 130 132 132 133 125 125 124 129 132 129 132 133 137 132 128 127 130 130 132 131 125 118 107 100 87 88 81 77 77 69 62 53
253 240 210 210 192 175 170 204 208 179 181 210 238 190 156 294 15 321 280 107 211 245 242 194 191 170 160 211 207 210 190 174 165 177 183 182 179 170 172 173 169 163 160 156 154 150 145 139 135 129 127 130 130 131 131 128 123 116 116 118 107 99 107 114 120 122 126 125 118 120 126 127 131 132 127 119 112 105 102 98 96 92 85 70 62 53
260 229 224 209 193 183 182 183 202 197 200 213 243 125 148 246 131 260 224 228 213 209 243 181 164 189 212 179 185 201 186 181 185 179 182 176 169 169 170 165 164 160 153 153 154 153 149 142 137 137 135 131 136 135 131 123 116 113 114 113 108 99 98 102 109 110 110 107 108 110 109 104 99 95 103 108 107 109 106 109 107 101 88 68 59 56
268 253 231 210 190 195 178 189 174 199 205 204 210 166 158 168 165 207 229 204 293 271 255 157 178 223 203 255 186 184 187 186 193 192 175 164 168 167 164 159 155 156 155 156 157 151 150 145 143 139 136 136 137 134 127 120 116 113 109 106 105 101 93 98 98 103 99 96 97 98 100 101 102 99 98 101 107 107 108 111 107 100 92 82 82 83
191 232 248 191 206 176 196 198 191 195 193 209 186 131 171 145 170 202 196 196 204 205 238 195 142 222 132 230 184 190 185 184 187 171 163 158 158 160 155 152 150 152 156 153 152 151 150 144 143 141 140 140 138 130 122 118 114 113 108 108 108 103 94 93 96 98 99 100 99 99 99 99 100 101 99 100 105 112 114 110 106 100 93 87 84 86
222 226 244 207 211 175 198 195 183 135 158 202 166 116 130 209 137 204 197 154 208 189 71 177 178 189 142 293 208 177 155 151 140 140 142 146 161 162 153 156 157 156 153 155 152 146 144 142 143 142 142 141 134 128 123 122 122 115 113 109 102 103 101 99 95 92 98 98 101 102 102 101 101 102 102 103 105 107 111 115 110 100 86 87 89 83
175 244 239 182 223 181 198 180 198 158 191 193 150 208 211 149 121 112 357 244 96 73 210 209 5 37 330 35 68 115 129 137 141 148 155 156 167 163 157 157 159 156 153 154 158 149 147 146 146 146 144 139 133 131 128 126 123 121 117 112 104 97 94 95 98 100 98 102 102 100 102 104 102 105 107 111 114 114 113 110 101 93 88 90 86 79
147 241 273 183 206 217 191 190 191 184 150 131 189 212 99 152 126 131 189 312 110 153 238 84 156 228 72 186 57 112 133 150 160 167 162 161 168 164 162 163 160 159 156 153 150 152 151 148 146 144 141 138 136 132 126 121 118 114 113 114 111 106 104 99 104 105 108 108 105 108 106 104 106 109 110 114 118 119 114 100 89 88 89 84 79 80
81 217 269 216 193 208 204 178 212 254 204 168 203 152 163 196 241 304 106 229 145 179 251 339 175 168 151 147 138 145 149 169 175 167 155 165 170 167 164 161 155 153 150 148 149 154 152 149 148 145 140 136 133 128 125 121 116 114 110 108 108 110 109 112 107 106 101 106 111 114 114 114 111 111 112 115 115 116 107 95 85 85 92 86 82 81
324 165 285 226 186 179 132 163 200 211 242 203 96 166 167 113 156 146 208 179 120 209 102 284 21 201 204 164 164 164 169 174 175 172 173 172 174 167 163 159 156 159 156 152 155 156 152 151 149 146 143 140 137 132 129 123 119 117 119 115 112 106 109 109 109 112 110 115 117 117 114 111 114 117 119 116 112 105 99 96 99 103 95 95 90 86
287 136 220 258 185 143 194 186 201 195 198 196 163 217 195 190 203 138 94 150 173 167 161 152 255 284 254 183 165 171 173 174 175 178 172 175 177 172 166 162 161 163 158 157 156 155 152 149 147 145 138 132 128 127 127 127 126 126 123 123 123 123 121 116 122 118 119 120 118 118 117 119 119 116 108 100 99 100 98 103 104 98 103 93 88 91
253 293 197 304 139 188 221 228 187 177 169 156 154 189 177 163 186 151 249 345 116 106 192 127 222 272 276 174 170 167 175 176 180 171 173 177 176 171 169 165 161 160 160 156 156 153 150 146 146 144 135 133 134 135 134 133 130 132 133 131 125 117 121 125 131 130 125 118 123 119 120 115 106 103 100 99 99 102 104 102 101 105 96 92 91 91
207 153 100 166 186 194 197 152 156 166 169 166 141 223 169 135 108 100 142 250 29 228 130 155 126 275 243 181 182 172 179 178 174 171 171 173 172 170 166 164 163 160 159 156 155 153 151 149 150 148 142 143 142 141 139 140 138 137 133 129 128 125 131 133 135 127 121 122 120 112 109 109 110 109 106 106 106 106 106 103 103 102 99 97 93 86
168 202 226 249 269 329 343 331 77 148 142 165 165 111 100 186 176 165 166 190 152 236 116 25 180 252 286 217 197 189 172 164 167 173 168 165 165 164 157 159 158 153 153 149 150 149 148 149 149 144 144 145 145 146 146 142 135 132 131 133 132 131 134 129 127 116 113 114 107 109 113 117 119 114 116 113 112 110 107 105 104 103 100 101 98 94
181 261 121 130 70 67 352 342 349 356 93 130 183 224 176 143 181 192 109 112 145 230 168 131 204 226 288 186 127 108 124 157 171 171 160 155 161 160 157 157 154 151 149 150 152 149 147 149 153 152 150 149 148 145 143 140 137 135 134 134 133 132 134 130 120 116 116 114 115 116 120 122 120 118 116 114 112 110 106 105 106 105 107 105 99 100
122 197 99 132 159 164 186 188 203 192 201 236 170 159 189 152 171 134 216 351 119 280 119 139 212 259 289 147 136 133 137 135 142 151 161 163 160 159 156 155 151 152 153 152 150 150 154 155 151 150 151 150 150 146 143 140 138 137 134 136 135 136 137 131 124 121 116 120 120 122 121 121 118 117 118 118 115 114 110 111 110 108 107 106 104 98
170 131 105 156 147 183 198 206 237 135 113 164 212 134 258 158 130 110 106 112 196 224 193 236 167 142 126 155 136 141 144 151 154 158 161 166 165 154 153 154 155 157 158 157 158 156 152 152 153 150 152 153 150 147 147 144 141 138 139 141 142 142 138 136 132 122 122 126 124 123 123 122 120 120 120 119 120 117 114 114 115 112 111 108 106 103
50 25 298 126 148 190 197 193 191 136 153 182 133 219 298 188 143 118 133 210 180 107 248 270 168 127 183 175 164 159 163 162 164 165 164 160 159 157 155 152 149 152 153 153 155 157 159 159 151 152 154 153 151 150 148 144 143 146 148 148 149 145 143 144 137 127 128 128 124 123 123 120 117 116 118 119 119 116 117 117 115 113 112 108 103 101
131 66 277 183 267 214 160 323 142 134 146 156 162 152 220 179 128 131 197 205 128 186 209 213 189 142 178 185 178 170 163 170 172 174 172 164 154 148 148 151 155 157 158 159 164 163 160 161 158 155 155 155 153 153 147 141 141 142 145 147 150 149 152 147 134 130 132 130 127 128 122 115 114 115 117 118 116 115 114 114 115 114 110 103 102 98
105 238 275 229 170 354 7 39 60 104 134 121 158 166 208 153 173 142 182 162 163 220 197 157 178 166 171 179 178 177 168 160 158 141 137 150 161 159 158 160 161 163 164 166 167 168 167 165 160 158 157 156 158 152 145 146 149 151 151 153 153 152 152 138 134 135 136 132 130 125 121 119 118 120 119 113 112 112 113 116 116 111 106 104 102 101
104 270 242 325 63 345 320 89 43 50 118 184 216 210 150 116 103 179 131 160 120 53 19 134 131 110 318 109 69 87 121 121 134 156 165 163 161 163 162 164 165 166 167 165 166 168 168 166 163 161 160 156 157 153 149 152 151 150 151 153 153 153 148 130 139 138 139 138 134 128 126 125 125 122 117 117 112 110 113 117 116 114 112 112 108 101
50 256 7 7 69 325 322 64 35 35 69 157 234 238 224 143 161 204 141 222 128 175 73 124 113 123 233 105 100 102 124 147 159 161 161 164 167 164 165 166 167 168 168 168 170 170 170 170 169 168 165 158 158 155 152 151 153 154 157 153 153 152 137 134 140 141 139 138 132 131 132 127 126 121 123 119 115 113 117 120 120 120 119 114 107 102
210 124 357 22 65 293 288 87 66 50 71 123 257 249 196 197 225 211 289 212 201 140 122 153 202 177 156 143 134 143 142 155 165 168 164 165 166 168 169 170 173 174 172 171 172 175 175 173 173 169 162 156 159 159 160 155 154 159 157 156 151 141 135 140 141 138 138 137 137 138 131 130 128 128 126 123 120 118 119 121 123 125 122 118 117 111
332 88 167 196 115 224 311 47 56 61 141 230 233 188 153 81 176 142 204 213 211 141 185 186 167 158 147 147 147 162 160 172 181 184 173 164 165 171 173 174 176 176 175 176 176 176 174 171 168 166 161 161 162 162 160 161 155 151 149 144 143 142 145 145 148 148 148 145 145 140 136 134 132 132 132 128 124 121 121 124 126 127 124 121 115 112
183 212 203 174 94 109 353 48 62 246 233 242 290 268 196 205 143 153 142 259 267 46 96 100 123 161 175 166 166 168 179 184 172 162 172 173 164 166 173 177 177 177 177 176 177 177 174 171 166 162 161 163 159 152 148 144 139 142 144 147 146 149 148 152 152 151 151 148 144 141 141 139 137 137 137 132 128 124 123 124 125 126 130 129 130 130
157 98 219 35 103 59 51 50 125 233 238 295 296 287 260 125 114 99 73 14 293 187 143 152 163 178 180 178 178 174 167 152 154 168 168 170 176 173 170 176 178 177 178 180 176 175 171 169 166 162 159 152 147 148 149 147 148 147 149 147 146 147 149 151 154 154 151 148 150 149 148 144 143 142 140 137 133 130 132 132 131 128 129 125 124 118
135 117 88 20 84 140 182 133 188 292 332 354 358 64 90 155 56 149 156 283 317 301 184 160 171 168 169 126 109 91 100 110 132 168 197 182 184 184 176 176 175 180 177 173 172 170 166 162 162 154 147 151 153 152 151 148 150 148 145 148 150 146 153 157 154 154 159 152 154 153 152 149 147 147 147 145 141 141 142 139 135 127 123 122 131 130
110 108 233 91 317 120 120 39 23 6 187 277 247 276 291 210 171 173 102 298 292 327 320 161 165 161 130 114 116 120 117 112 139 199 198 192 184 180 193 181 173 168 167 164 164 164 164 166 159 152 156 156 160 160 154 153 153 152 152 155 152 152 158 156 159 159 160 158 159 157 156 153 151 151 152 150 151 150 148 142 133 134 129 130 136 136
54 83 119 107 237 32 43 113 192 151 239 212 259 259 269 226 146 141 70 290 271 238 336 185 155 152 145 138 141 134 130 152 193 201 190 177 174 174 166 169 170 171 167 165 164 166 166 164 157 155 156 156 161 161 155 152 152 153 156 161 158 158 161 164 160 164 163 161 160 158 157 155 153 154 154 156 157 154 150 150 149 145 131 132 131 138
54 4 38 25 43 13 136 96 199 195 158 318 250 269 245 187 90 66 176 265 265 296 216 151 167 157 152 151 150 157 156 175 202 217 184 178 172 168 168 167 166 166 167 166 168 165 161 152 148 157 161 163 162 157 156 153 155 157 159 162 158 158 166 167 164 170 161 154 156 157 156 157 155 154 157 158 155 152 152 149 139 144 139 139 137 140
47 354 72 190 167 26 96 294 341 317 288 281 280 281 248 184 75 103 192 234 252 278 282 150 164 165 156 155 163 166 202 186 202 179 151 147 147 166 174 168 169 167 165 166 166 160 159 159 159 161 163 163 158 159 159 157 157 160 160 159 161 166 164 158 161 163 153 153 153 157 157 156 155 154 157 157 157 155 148 148 150 149 144 144 140 136
16 93 332 87 97 211 189 126 210 236 240 252 272 231 251 60 112 220 233 205 250 280 280 151 161 163 166 167 180 188 186 152 111 129 146 159 167 163 161 163 159 162 164 163 159 160 161 160 161 161 161 161 160 161 161 159 158 157 156 161 167 164 155 154 152 150 153 157 156 155 156 155 151 153 157 159 153 151 153 155 152 154 152 146 148 153
207 131 217 189 222 65 55 62 12 128 265 144 312 14 31 97 226 211 252 306 222 252 255 163 161 170 169 178 190 121 104 114 140 151 155 154 152 160 164 164 165 164 163 161 165 165 157 159 163 165 162 160 161 162 161 158 157 158 159 165 164 156 150 147 151 154 161 162 155 157 157 154 153 158 160 160 157 151 152 157 156 158 152 154 159 161
202 101 270 257 174 159 128 134 176 213 249 290 74 138 252 182 193 183 139 264 292 238 211 127 179 164 170 161 166 118 121 121 123 135 143 154 158 162 168 167 164 162 162 166 165 162 158 155 159 161 164 163 160 160 160 160 160 160 165 167 160 150 151 155 158 155 161 160 157 156 156 155 157 159 159 158 153 149 150 157 159 159 161 164 164 167
304 158 179 152 227 129 198 207 249 260 244 296 59 54 210 305 198 175 152 183 155 330 213 134 168 174 164 154 146 142 143 155 155 159 156 167 163 163 166 170 167 165 164 164 167 161 161 158 159 159 162 164 160 159 161 163 160 160 162 162 160 156 155 158 156 155 157 158 158 158 156 153 157 160 158 159 152 152 156 159 160 163 174 164 169 169
269 227 219 80 55 291 101 136 176 352 5 4 5 16 21 19 360 86 80 55 347 9 102 143 142 141 131 140 125 145 146 152 141 153 147 151 157 160 154 151 156 157 157 157 157 161 160 154 154 158 162 163 162 160 163 164 162 162 161 156 159 158 158 156 155 156 157 157 158 159 156 154 161 161 159 154 155 157 162 161 165 167 171 170 173 176
279 332 65 106 181 70 137 315 49 70 327 37 357 335 14 49 30 9 37 41 21 67 77 73 111 113 130 134 129 134 131 139 133 133 138 139 147 157 160 159 159 161 162 166 163 158 159 159 160 163 163 163 165 162 163 163 166 157 152 163 158 156 156 158 157 156 155 158 158 159 158 158 162 161 159 154 156 159 165 163 167 165 164 170 172 175
326 1 66 47 67 102 192 248 286 282 338 358 48 14 26 9 16 21 18 350 78 60 85 110 95 71 88 107 131 129 136 145 143 147 152 158 156 156 158 158 157 159 164 158 158 161 158 164 164 163 164 165 165 162 163 164 161 157 162 161 158 156 158 159 160 158 159 158 158 159 160 160 163 161 158 162 159 156 152 160 168 169 174 177 173 164
255 353 82 4 113 287 334 303 285 77 34 12 352 300 265 102 59 11 11 31 60 86 77 49 90 148 140 135 134 128 135 158 156 149 145 147 148 152 155 156 159 158 155 156 162 163 164 166 164 164 164 165 164 163 164 165 162 160 161 163 161 159 159 159 157 156 156 156 156 158 160 161 164 162 161 149 114 104 135 162 173 170 192 229 184 165
53 24 331 63 77 138 171 189 179 109 216 248 332 309 322 350 67 29 12 41 49 111 105 92 49 68 137 145 143 138 138 141 148 144 145 153 156 151 146 150 153 153 157 161 162 164 163 166 164 165 165 163 163 164 163 163 161 161 161 156 156 158 158 156 156 156 159 159 159 158 160 162 164 160 147 137 135 122 78 34 44 317 166 168 193 202
126 209 128 143 159 218 239 226 194 164 160 218 210 316 360 6 62 49 20 30 29 184 143 109 88 78 118 138 140 134 138 144 152 146 140 147 156 160 158 153 154 159 160 163 165 168 164 166 167 164 164 164 164 165 164 164 162 162 157 151 157 162 159 158 159 162 161 162 164 165 165 163 160 158 144 144 140 135 124 103 48 38 41 66 122 147